Weather History for KTOL - January, 2013

Change the Weather History Date:

Wednesday, January 2, 2013

  Actual Average Record
Temperature  
Mean Temperature 15 °F 26 °F  
Max Temperature 23 °F 33 °F 59 °F (1876)
Min Temperature 7 °F 19 °F -9 °F (1879)
Degree Days  
Heating Degree Days 50 39  
Month to date heating degree days 95 78  
Since 1 July heating degree days 2346 2403  
Cooling Degree Days 0 0  
Month to date cooling degree days 0 0  
Year to date cooling degree days 0 0  
Moisture  
Dew Point 10 °F    
Average Humidity 80    
Maximum Humidity 92    
Minimum Humidity 67    
Precipitation  
Precipitation 0.00 in 0.07 in - ()
Month to date precipitation 0.00 0.15  
Year to date precipitation 0.00 0.15  
Snow  
Snow 0.00 in 0.40 in - ()
Month to date snowfall 0.0 0.7  
Since 1 July snowfall 7.0 10.2  
Snow Depth 3.00 in    
Sea Level Pressure  
Sea Level Pressure 30.20 in    
Wind  
Wind Speed 7 mph (SW)    
Max Wind Speed 10 mph    
Max Gust Speed 14 mph    
Visibility 10 miles    
Events      
T = Trace of Precipitation, MM = Missing Value Source: NWS Daily Summary

Daily Weather History Graph

Daily Weather History Graph

Search for Another Location

Airport or City:

Trip Planner

Search our weather history database for the weather conditions in past years. The results will help you decide how hot, cold, wet, or windy it might be!

Date:

Astronomy

Jan. 02, 2013 Rise Set
Actual Time 8:02 AM EST 5:16 PM EST
Civil Twilight 7:30 AM EST 5:48 PM EST
Nautical Twilight 6:56 AM EST 6:23 PM EST
Astronomical Twilight 6:22 AM EST 6:56 PM EST
Moon 10:53 PM EST (1/2) 10:39 AM EST (1/2)
Length of Visible Light 10h 17m
Length of Day
9h 14m
Waning Gibbous, 75% of the Moon is Illuminated
Jan 2
Waning Gibbous
Jan 4
Last Quarter
Jan 11
New
Jan 18
First Quarter
Jan 26
Full

Hourly Weather History & Observations

Time (EST) Temp. Windchill Dew Point Humidity Pressure Visibility Wind Dir Wind Speed Gust Speed Precip Events Conditions
12:52 AM 9.0 °F 2.4 °F 6.1 °F 88% 30.13 in 10.0 mi SW 3.5 mph - N/A   Clear
1:52 AM 14.0 °F 3.9 °F 9.0 °F 80% 30.13 in 10.0 mi WSW 6.9 mph - N/A   Clear
2:52 AM 10.0 °F 0.4 °F 7.0 °F 87% 30.15 in 10.0 mi West 5.8 mph - N/A   Clear
3:52 AM 7.0 °F -4.5 °F 3.9 °F 87% 30.16 in 10.0 mi WSW 6.9 mph - N/A   Clear
4:52 AM 10.9 °F 0.2 °F 8.1 °F 88% 30.15 in 10.0 mi WSW 6.9 mph - N/A   Clear
5:52 AM 10.0 °F -1.9 °F 6.1 °F 84% 30.17 in 10.0 mi WSW 8.1 mph - N/A   Clear
6:52 AM 10.9 °F -1.8 °F 7.0 °F 84% 30.19 in 10.0 mi WSW 9.2 mph - N/A   Clear
7:52 AM 9.0 °F -0.9 °F 6.1 °F 88% 30.18 in 10.0 mi WSW 5.8 mph - N/A   Clear
8:52 AM 9.0 °F -2.2 °F 6.1 °F 88% 30.19 in 10.0 mi WSW 6.9 mph - N/A   Clear
9:52 AM 14.0 °F 2.9 °F 8.6 °F 79% 30.17 in 10.0 mi WSW 8.1 mph - N/A   Scattered Clouds
10:00 AM 15.8 °F 6.1 °F 10.4 °F 79% 30.17 in 10.0 mi WSW 6.9 mph - N/A   Mostly Cloudy
10:52 AM 18.0 °F 8.7 °F 12.0 °F 78% 30.24 in 10.0 mi SW 6.9 mph - N/A   Overcast
11:52 AM 19.9 °F 9.3 °F 12.9 °F 74% 30.23 in 10.0 mi WSW 9.2 mph - N/A   Overcast
12:52 PM 21.0 °F 11.4 °F 12.9 °F 71% 30.22 in 10.0 mi WSW 8.1 mph - N/A   Overcast
1:52 PM 21.9 °F 15.7 °F 14.0 °F 72% 30.21 in 10.0 mi SW 4.6 mph - N/A   Overcast
2:52 PM 23.0 °F 15.8 °F 14.0 °F 68% 30.19 in 10.0 mi SSW 5.8 mph - N/A   Overcast
3:52 PM 21.9 °F 13.4 °F 14.0 °F 72% 30.21 in 10.0 mi South 6.9 mph - N/A   Overcast
4:52 PM 21.0 °F 14.6 °F 14.0 °F 74% 30.21 in 10.0 mi SSW 4.6 mph - N/A   Overcast
5:52 PM 19.9 °F 9.3 °F 12.9 °F 74% 30.23 in 10.0 mi SW 9.2 mph - N/A   Overcast
6:52 PM 19.9 °F 10.1 °F 14.0 °F 78% 30.25 in 10.0 mi SW 8.1 mph - N/A   Overcast
7:52 PM 19.9 °F 12.1 °F 14.0 °F 78% 30.25 in 10.0 mi SW 5.8 mph - N/A   Overcast
8:52 PM 19.9 °F 13.4 °F 12.9 °F 74% 30.23 in 10.0 mi SSW 4.6 mph - N/A   Overcast
9:52 PM 19.9 °F 12.1 °F 12.0 °F 71% 30.23 in 10.0 mi SSW 5.8 mph - N/A   Overcast
10:52 PM 19.0 °F 12.3 °F 10.9 °F 71% 30.22 in 10.0 mi SSW 4.6 mph - N/A   Overcast
11:14 PM 17.6 °F 9.3 °F 8.6 °F 68% 30.19 in 10.0 mi SSW 5.8 mph - N/A   Scattered Clouds
11:52 PM 16.0 °F 10.4 °F 7.0 °F 68% 30.22 in 10.0 mi SSW 3.5 mph - N/A   Clear